ICE9L LSZH-BIKF

Flight info

Callsign ICE9L
Flight time 4h 0m
Altitude 36000
Route DEGES Z1 ETAGO DCT HAREM/N0456F350 DCT LOHRE/N0452F370 DCT MASEK DCT ELNAT DCT SAS/N0456F360 DCT ELSOB DCT ATTUS DCT LINVI DCT VALDI/M080F380 DCT 63N010W DCT ING DCT NASBU NASBU4K
Aircraft B38M/M-SDE1FGHILORVWXY/HB1

Departure

Time 2026-04-26 14:19
Airport Zürich Airport (LSZH)

Arrival

Time 2026-04-26 18:19
Airport Keflavik International Airport (BIKF)
Time Latitude Longitude Altitude Speed Heading
2026-04-26 13:39 47.45343 8.55754 1404 ft 0 kts
2026-04-26 13:57 47.45326 8.55751 1424 ft 4 kts
2026-04-26 13:57 47.45300 8.55752 1406 ft 4 kts 352°
2026-04-26 13:57 47.45274 8.55762 1400 ft 4 kts 328°
2026-04-26 13:58 47.45262 8.55785 1401 ft 2 kts 276°
2026-04-26 13:58 47.45262 8.55786 1401 ft 3 kts 276°
2026-04-26 14:01 47.45262 8.55782 1404 ft 1 kts 276°
2026-04-26 14:01 47.45264 8.55744 1399 ft 8 kts 274°
2026-04-26 14:02 47.45272 8.55624 1399 ft 14 kts 276°
2026-04-26 14:02 47.45342 8.55532 1403 ft 15 kts 334°
2026-04-26 14:02 47.45439 8.55466 1399 ft 16 kts 334°
2026-04-26 14:02 47.45543 8.55393 1399 ft 17 kts 335°
2026-04-26 14:03 47.45600 8.55355 1403 ft 5 kts 334°
2026-04-26 14:03 47.45658 8.55354 1399 ft 12 kts 45°
2026-04-26 14:03 47.45665 8.55492 1399 ft 15 kts 96°
2026-04-26 14:03 47.45652 8.55653 1399 ft 17 kts 96°
2026-04-26 14:04 47.45640 8.55831 1399 ft 18 kts 96°
2026-04-26 14:04 47.45627 8.56006 1399 ft 15 kts 95°
2026-04-26 14:04 47.45616 8.56170 1402 ft 17 kts 96°
2026-04-26 14:04 47.45603 8.56347 1407 ft 18 kts 96°
2026-04-26 14:05 47.45595 8.56472 1399 ft 10 kts 96°
2026-04-26 14:05 47.45587 8.56578 1402 ft 11 kts 96°
2026-04-26 14:05 47.45579 8.56688 1399 ft 8 kts 96°
2026-04-26 14:05 47.45577 8.56716 1406 ft 0 kts 96°
2026-04-26 14:06 47.45577 8.56718 1406 ft 1 kts 96°
2026-04-26 14:07 47.45576 8.56732 1399 ft 0 kts 96°
2026-04-26 14:07 47.45575 8.56744 1407 ft 2 kts 96°
2026-04-26 14:07 47.45573 8.56773 1404 ft 4 kts 96°
2026-04-26 14:07 47.45569 8.56820 1399 ft 5 kts 96°
2026-04-26 14:08 47.45568 8.56836 1406 ft 0 kts 96°
2026-04-26 14:11 47.45568 8.56839 1406 ft 1 kts 96°
2026-04-26 14:11 47.45567 8.56851 1403 ft 1 kts 96°
2026-04-26 14:12 47.45565 8.56874 1399 ft 3 kts 96°
2026-04-26 14:12 47.45563 8.56914 1399 ft 5 kts 95°
2026-04-26 14:12 47.45562 8.56933 1399 ft 0 kts 94°
2026-04-26 14:15 47.45561 8.56944 1399 ft 2 kts 91°
2026-04-26 14:15 47.45564 8.56967 1400 ft 3 kts 73°
2026-04-26 14:16 47.45566 8.56973 1400 ft 0 kts 69°
2026-04-26 14:16 47.45578 8.56998 1408 ft 7 kts 44°
2026-04-26 14:16 47.45651 8.57017 1400 ft 13 kts 328°
2026-04-26 14:16 47.45664 8.56967 1406 ft 0 kts 277°
2026-04-26 14:18 47.45666 8.56943 1401 ft 16 kts 277°
2026-04-26 14:19 47.45709 8.56344 1401 ft 99 kts 276°
2026-04-26 14:19 47.45806 8.54963 1400 ft 168 kts 276°
2026-04-26 14:19 47.45953 8.53011 1646 ft 205 kts 278°
2026-04-26 14:19 47.46114 8.50730 2317 ft 220 kts 278°
2026-04-26 14:20 47.46220 8.48742 4003 ft 182 kts 269°
2026-04-26 14:20 47.45924 8.46876 4639 ft 197 kts 247°
2026-04-26 14:20 47.45218 8.45046 5028 ft 216 kts 234°
2026-04-26 14:20 47.44197 8.43289 5034 ft 234 kts 225°
2026-04-26 14:21 47.43054 8.41468 4942 ft 248 kts 239°
2026-04-26 14:21 47.42510 8.39054 5036 ft 251 kts 257°
2026-04-26 14:21 47.41687 8.36787 5527 ft 257 kts 223°
2026-04-26 14:21 47.40149 8.35681 6434 ft 249 kts 185°
2026-04-26 14:22 47.38434 8.36073 7157 ft 260 kts 155°
2026-04-26 14:22 47.36896 8.37611 7740 ft 276 kts 136°
2026-04-26 14:22 47.35793 8.39955 8547 ft 281 kts 109°
2026-04-26 14:22 47.35617 8.42815 9431 ft 288 kts 78°
2026-04-26 14:23 47.36484 8.45491 10158 ft 297 kts 47°
2026-04-26 14:23 47.38156 8.47377 10642 ft 313 kts 30°
2026-04-26 14:23 47.40057 8.49146 11032 ft 333 kts 32°
2026-04-26 14:23 47.42035 8.51050 11374 ft 353 kts 32°
2026-04-26 14:24 47.44136 8.53050 11917 ft 365 kts 32°
2026-04-26 14:24 47.46282 8.55121 12611 ft 372 kts 36°
2026-04-26 14:24 47.48064 8.57902 13399 ft 376 kts 57°
2026-04-26 14:24 47.49102 8.61449 14162 ft 381 kts 76°
2026-04-26 14:25 47.49294 8.65379 14749 ft 386 kts 96°
2026-04-26 14:25 47.48666 8.69235 15443 ft 389 kts 110°
2026-04-26 14:25 47.47621 8.72953 16020 ft 394 kts 113°
2026-04-26 14:25 47.46924 8.76874 16631 ft 398 kts 95°
2026-04-26 14:26 47.46848 8.80976 17246 ft 402 kts 90°
2026-04-26 14:26 47.46449 8.85028 17812 ft 407 kts 105°
2026-04-26 14:26 47.45765 8.89110 18393 ft 412 kts 102°
2026-04-26 14:26 47.45149 8.93262 18944 ft 414 kts 102°
2026-04-26 14:27 47.44540 8.97443 19487 ft 418 kts 102°
2026-04-26 14:27 47.43930 9.01665 20000 ft 422 kts 102°
2026-04-26 14:27 47.43318 9.05913 20519 ft 425 kts 102°
2026-04-26 14:27 47.42699 9.10201 21031 ft 429 kts 102°
2026-04-26 14:28 47.42285 9.13061 21366 ft 431 kts 102°
2026-04-26 14:28 47.41936 9.17460 21833 ft 434 kts 88°
2026-04-26 14:28 47.42419 9.21841 22361 ft 434 kts 71°
2026-04-26 14:28 47.43644 9.25918 22816 ft 437 kts 60°
2026-04-26 14:29 47.45096 9.29895 23233 ft 442 kts 59°
2026-04-26 14:29 47.47102 9.35151 23841 ft 445 kts 54°
2026-04-26 14:29 47.48389 9.37585 24061 ft 445 kts 44°
2026-04-26 14:29 47.51662 9.41128 24569 ft 441 kts 22°
2026-04-26 14:30 47.53539 9.42275 24803 ft 442 kts 18°
2026-04-26 14:30 47.56434 9.43853 25159 ft 445 kts 17°
2026-04-26 14:30 47.59421 9.44946 25511 ft 442 kts
2026-04-26 14:30 47.62493 9.45211 25884 ft 444 kts
2026-04-26 14:31 47.65596 9.45445 26169 ft 448 kts 360°
2026-04-26 14:31 47.68719 9.45643 26550 ft 450 kts 359°
2026-04-26 14:31 47.71856 9.45827 26911 ft 453 kts 359°
2026-04-26 14:31 47.75011 9.46004 27248 ft 456 kts 359°
2026-04-26 14:32 47.78190 9.46179 27595 ft 458 kts 359°
2026-04-26 14:32 47.81380 9.46222 27922 ft 460 kts 357°
2026-04-26 14:32 47.84594 9.46207 28278 ft 463 kts 356°
2026-04-26 14:32 47.87822 9.46200 28595 ft 466 kts 356°
2026-04-26 14:33 47.91078 9.46197 28930 ft 468 kts 356°
2026-04-26 14:33 47.94302 9.46196 29239 ft 471 kts 356°
2026-04-26 14:33 47.97582 9.46195 29560 ft 473 kts 356°
2026-04-26 14:33 48.00881 9.46196 29877 ft 475 kts 356°
2026-04-26 14:34 48.04192 9.46196 30259 ft 476 kts 356°
2026-04-26 14:34 48.07498 9.46197 30693 ft 474 kts 356°
2026-04-26 14:34 48.10783 9.46198 31165 ft 471 kts 356°
2026-04-26 14:34 48.14050 9.46198 31579 ft 469 kts 356°
2026-04-26 14:35 48.17304 9.46200 31990 ft 467 kts 356°
2026-04-26 14:35 48.20499 9.46202 32391 ft 465 kts 356°
2026-04-26 14:35 48.23731 9.46204 32783 ft 463 kts 356°
2026-04-26 14:35 48.26948 9.46206 33201 ft 461 kts 357°
2026-04-26 14:36 48.30148 9.46208 33652 ft 458 kts 357°
2026-04-26 14:36 48.33323 9.46210 34069 ft 456 kts 357°
2026-04-26 14:36 48.36492 9.46212 34398 ft 454 kts 357°
2026-04-26 14:36 48.39644 9.46214 34679 ft 453 kts 357°
2026-04-26 14:37 48.42798 9.46216 34948 ft 453 kts 357°
2026-04-26 14:37 48.45950 9.46218 35232 ft 452 kts 357°
2026-04-26 14:37 48.49051 9.46220 35487 ft 451 kts 357°
2026-04-26 14:37 48.52188 9.46218 35741 ft 450 kts 356°
2026-04-26 14:38 48.55315 9.46183 35973 ft 450 kts 356°
2026-04-26 14:38 48.58448 9.46149 36174 ft 450 kts 356°
2026-04-26 14:38 48.61580 9.46116 36228 ft 450 kts 356°
2026-04-26 14:39 48.67821 9.46052 36209 ft 447 kts 356°
2026-04-26 14:39 48.74048 9.45895 36200 ft 447 kts 355°
2026-04-26 14:40 48.80226 9.45567 36207 ft 447 kts 355°
2026-04-26 14:40 48.86439 9.45257 36211 ft 447 kts 355°
2026-04-26 14:41 48.92653 9.44947 36234 ft 447 kts 355°
2026-04-26 14:41 48.98873 9.44636 36223 ft 447 kts 355°
2026-04-26 14:42 49.05089 9.44324 36227 ft 447 kts 355°
2026-04-26 14:42 49.11296 9.44013 36227 ft 447 kts 355°
2026-04-26 14:43 49.17467 9.43702 36232 ft 447 kts 355°
2026-04-26 14:43 49.23676 9.43389 36227 ft 447 kts 355°
2026-04-26 14:44 49.29888 9.43075 36225 ft 447 kts 355°
2026-04-26 14:44 49.36106 9.42759 36233 ft 447 kts 355°
2026-04-26 14:45 49.42271 9.42446 36240 ft 446 kts 355°
2026-04-26 14:45 49.48474 9.42130 36237 ft 446 kts 355°
2026-04-26 14:46 49.54667 9.41813 36243 ft 445 kts 355°
2026-04-26 14:46 49.60855 9.41500 36257 ft 445 kts 356°
2026-04-26 14:47 49.67042 9.42288 36277 ft 448 kts
2026-04-26 14:47 49.73236 9.43262 36249 ft 447 kts
2026-04-26 14:48 49.79383 9.44243 36258 ft 447 kts
2026-04-26 14:48 49.85577 9.45235 36255 ft 447 kts
2026-04-26 14:49 49.91759 9.46229 36260 ft 447 kts
2026-04-26 14:49 49.97940 9.47224 36252 ft 447 kts
2026-04-26 14:50 50.04083 9.48216 36267 ft 447 kts
2026-04-26 14:50 50.10261 9.49241 36255 ft 446 kts
2026-04-26 14:51 50.16440 9.50273 36262 ft 447 kts
2026-04-26 14:51 50.22632 9.51310 36474 ft 448 kts
2026-04-26 14:51 50.25728 9.51830 36732 ft 446 kts
2026-04-26 14:52 50.28815 9.52348 36945 ft 446 kts
2026-04-26 14:52 50.31905 9.52868 37144 ft 446 kts
2026-04-26 14:52 50.34984 9.53386 37289 ft 446 kts
2026-04-26 14:53 50.41113 9.54421 37243 ft 444 kts
2026-04-26 14:53 50.47263 9.55462 37271 ft 445 kts
2026-04-26 14:54 50.53422 9.56507 37253 ft 445 kts
2026-04-26 14:54 50.59574 9.57553 37278 ft 445 kts
2026-04-26 14:55 50.65724 9.58601 37278 ft 445 kts
2026-04-26 14:55 50.68754 9.58621 37237 ft 438 kts 349°
2026-04-26 14:55 50.71663 9.57402 37265 ft 431 kts 334°
2026-04-26 14:55 50.74282 9.55146 37257 ft 429 kts 321°
2026-04-26 14:56 50.76496 9.52013 37282 ft 427 kts 313°
2026-04-26 14:56 50.80511 9.45049 37251 ft 429 kts 309°
2026-04-26 14:57 50.84358 9.37836 37247 ft 429 kts 309°
2026-04-26 14:57 50.88120 9.30613 37283 ft 428 kts 308°
2026-04-26 14:58 50.91892 9.23317 37283 ft 428 kts 308°
2026-04-26 14:58 50.95659 9.16006 37284 ft 428 kts 308°
2026-04-26 14:59 50.99422 9.08681 37289 ft 428 kts 308°
2026-04-26 14:59 51.03179 9.01347 37290 ft 428 kts 308°
2026-04-26 15:00 51.06906 8.94052 37271 ft 428 kts 308°
2026-04-26 15:00 51.10651 8.86701 37285 ft 428 kts 308°
2026-04-26 15:01 51.14390 8.79341 37288 ft 428 kts 308°
2026-04-26 15:01 51.18128 8.71962 37278 ft 428 kts 308°
2026-04-26 15:02 51.21858 8.64575 37272 ft 428 kts 308°
2026-04-26 15:02 51.25586 8.57175 37273 ft 427 kts 308°
2026-04-26 15:03 51.29275 8.49834 37273 ft 426 kts 308°
2026-04-26 15:03 51.33616 8.43512 37265 ft 428 kts 332°
2026-04-26 15:04 51.39282 8.40374 37253 ft 433 kts 340°
2026-04-26 15:04 51.45067 8.37623 37290 ft 434 kts 341°
2026-04-26 15:05 51.50875 8.34953 37289 ft 434 kts 341°
2026-04-26 15:05 51.56641 8.32316 37285 ft 434 kts 341°
2026-04-26 15:06 51.62452 8.29653 37298 ft 434 kts 341°
2026-04-26 15:06 51.68260 8.26984 37289 ft 434 kts 341°
2026-04-26 15:07 51.76967 8.22970 37314 ft 433 kts 341°
2026-04-26 15:07 51.82761 8.20290 37303 ft 433 kts 341°
2026-04-26 15:08 51.88518 8.17620 37295 ft 433 kts 341°
2026-04-26 15:08 51.94308 8.14927 37300 ft 433 kts 341°
2026-04-26 15:09 52.00101 8.12225 37300 ft 433 kts 341°
2026-04-26 15:09 52.05888 8.09520 37311 ft 433 kts 341°
2026-04-26 15:10 52.10692 8.07268 37316 ft 433 kts 341°
2026-04-26 15:10 52.17416 8.04108 37312 ft 433 kts 341°
2026-04-26 15:11 52.23204 8.01380 37312 ft 433 kts 341°
2026-04-26 15:11 52.28982 7.98649 37315 ft 433 kts 341°
2026-04-26 15:12 52.34763 7.95909 37314 ft 433 kts 341°
2026-04-26 15:12 52.40496 7.93186 37307 ft 430 kts 341°
2026-04-26 15:13 52.46239 7.90449 37308 ft 430 kts 341°
2026-04-26 15:13 52.51985 7.87703 37320 ft 430 kts 341°
2026-04-26 15:14 52.57725 7.84953 37302 ft 429 kts 341°
2026-04-26 15:14 52.63462 7.82197 37304 ft 430 kts 341°
2026-04-26 15:15 52.69158 7.79453 37304 ft 429 kts 341°
2026-04-26 15:15 52.74890 7.76685 37305 ft 429 kts 341°
2026-04-26 15:16 52.80626 7.73906 37305 ft 430 kts 340°
2026-04-26 15:16 52.86463 7.71770 37269 ft 434 kts 357°
2026-04-26 15:17 52.89476 7.72280 37328 ft 440 kts
2026-04-26 15:17 52.91444 7.73154 37331 ft 444 kts 14°
2026-04-26 15:17 52.98320 7.76701 37315 ft 446 kts 13°
2026-04-26 15:18 53.04250 7.79705 37317 ft 445 kts 13°
2026-04-26 15:18 53.10175 7.82712 37321 ft 446 kts 13°
2026-04-26 15:19 53.16107 7.85730 37319 ft 446 kts 13°
2026-04-26 15:19 53.22037 7.88756 37322 ft 446 kts 13°
2026-04-26 15:20 53.27965 7.91790 37322 ft 446 kts 13°
2026-04-26 15:20 53.33852 7.94811 37327 ft 446 kts 13°
2026-04-26 15:21 53.39775 7.97860 37330 ft 445 kts 13°
2026-04-26 15:21 53.45700 8.00918 37338 ft 445 kts 13°
2026-04-26 15:22 53.51626 8.03986 37340 ft 446 kts 13°
2026-04-26 15:22 53.57552 8.07064 37339 ft 446 kts 13°
2026-04-26 15:23 53.63475 8.10149 37336 ft 446 kts 13°
2026-04-26 15:23 53.69357 8.13221 37334 ft 446 kts 13°
2026-04-26 15:24 53.75279 8.16323 37328 ft 446 kts 13°
2026-04-26 15:24 53.81204 8.19437 37324 ft 446 kts 13°
2026-04-26 15:25 53.86124 8.22028 37322 ft 446 kts 13°
2026-04-26 15:25 53.93044 8.25685 37325 ft 446 kts 13°
2026-04-26 15:26 53.98922 8.28801 37343 ft 446 kts 13°
2026-04-26 15:26 54.04837 8.31946 37326 ft 445 kts 13°
2026-04-26 15:27 54.10752 8.35100 37323 ft 445 kts 13°
2026-04-26 15:27 54.16665 8.38263 37326 ft 445 kts 13°
2026-04-26 15:28 54.22581 8.41436 37341 ft 445 kts 13°
2026-04-26 15:28 54.28450 8.44595 37329 ft 445 kts 13°
2026-04-26 15:29 54.34359 8.47784 37327 ft 445 kts 13°
2026-04-26 15:30 54.46173 8.54188 37349 ft 445 kts 13°
2026-04-26 15:30 54.52071 8.57401 37330 ft 444 kts 13°
2026-04-26 15:31 54.60905 8.62230 37330 ft 444 kts 13°
2026-04-26 15:32 54.68754 8.66539 37330 ft 445 kts 13°
2026-04-26 15:32 54.75613 8.70320 37322 ft 444 kts 13°
2026-04-26 15:33 54.81505 8.73578 37329 ft 445 kts 13°
2026-04-26 15:33 54.87424 8.76616 37302 ft 438 kts
2026-04-26 15:34 54.90417 8.76693 37333 ft 426 kts 347°
2026-04-26 15:34 54.93232 8.75446 37340 ft 423 kts 338°
2026-04-26 15:34 54.98781 8.71977 37340 ft 423 kts 336°
2026-04-26 15:35 55.04257 8.68241 37326 ft 423 kts 335°
2026-04-26 15:35 55.09711 8.64416 37334 ft 423 kts 335°
2026-04-26 15:36 55.15165 8.60562 37331 ft 422 kts 335°
2026-04-26 15:36 55.20574 8.56728 37328 ft 422 kts 335°
2026-04-26 15:37 55.26018 8.52856 37334 ft 422 kts 335°
2026-04-26 15:37 55.31449 8.48983 37323 ft 421 kts 335°
2026-04-26 15:38 55.36878 8.45099 37326 ft 421 kts 335°
2026-04-26 15:38 55.42271 8.41230 37324 ft 421 kts 335°
2026-04-26 15:39 55.47700 8.37323 37319 ft 421 kts 335°
2026-04-26 15:39 55.52207 8.34071 37327 ft 421 kts 335°
2026-04-26 15:40 55.58546 8.29483 37329 ft 421 kts 335°
2026-04-26 15:40 55.63929 8.25575 37322 ft 421 kts 335°
2026-04-26 15:41 55.69347 8.21630 37326 ft 421 kts 335°
2026-04-26 15:41 55.74758 8.17677 37320 ft 421 kts 335°
2026-04-26 15:42 55.80174 8.13709 37317 ft 421 kts 335°
2026-04-26 15:42 55.85546 8.09761 37325 ft 421 kts 335°
2026-04-26 15:43 55.90958 8.05773 37324 ft 421 kts 335°
2026-04-26 15:44 55.99066 7.99774 37326 ft 421 kts 334°
2026-04-26 15:44 56.07176 7.93746 37336 ft 421 kts 334°
2026-04-26 15:45 56.15232 7.87731 37326 ft 420 kts 334°
2026-04-26 15:46 56.23331 7.81656 37324 ft 420 kts 334°
2026-04-26 15:46 56.27814 7.78282 37325 ft 420 kts 334°
2026-04-26 15:47 56.36777 7.71509 37325 ft 420 kts 334°
2026-04-26 15:48 56.42163 7.67423 37321 ft 420 kts 334°
2026-04-26 15:48 56.47551 7.63323 37320 ft 420 kts 334°
2026-04-26 15:49 56.52932 7.59214 37320 ft 420 kts 334°
2026-04-26 15:49 56.58278 7.55120 37319 ft 420 kts 334°
2026-04-26 15:50 56.63658 7.50988 37330 ft 420 kts 334°
2026-04-26 15:50 56.69038 7.46843 37315 ft 420 kts 334°
2026-04-26 15:51 56.74418 7.42685 37315 ft 420 kts 334°
2026-04-26 15:51 56.79794 7.38516 37317 ft 420 kts 334°
2026-04-26 15:52 56.85134 7.34366 37309 ft 420 kts 334°
2026-04-26 15:52 56.90510 7.30174 37331 ft 420 kts 334°
2026-04-26 15:53 56.95885 7.25971 37314 ft 420 kts 334°
2026-04-26 15:53 57.01036 7.21094 37295 ft 413 kts 319°
2026-04-26 15:54 57.05550 7.14596 37270 ft 415 kts 320°
2026-04-26 15:54 57.10095 7.08032 37297 ft 416 kts 320°
2026-04-26 15:55 57.14629 7.01406 37309 ft 416 kts 320°
2026-04-26 15:55 57.19151 6.94769 37335 ft 416 kts 320°
2026-04-26 15:56 57.23646 6.88150 37307 ft 416 kts 320°
2026-04-26 15:56 57.28160 6.81483 37309 ft 416 kts 320°
2026-04-26 15:57 57.32671 6.74798 37309 ft 416 kts 319°
2026-04-26 15:57 57.37188 6.68082 37308 ft 416 kts 319°
2026-04-26 15:58 57.41692 6.61364 37309 ft 416 kts 319°
2026-04-26 15:58 57.46166 6.54669 37305 ft 416 kts 319°
2026-04-26 15:59 57.50679 6.47893 37317 ft 417 kts 319°
2026-04-26 15:59 57.55176 6.41119 37306 ft 416 kts 319°
2026-04-26 16:00 57.59672 6.34326 37304 ft 416 kts 319°
2026-04-26 16:00 57.64138 6.27554 37314 ft 416 kts 319°
2026-04-26 16:01 57.68625 6.20728 37309 ft 416 kts 319°
2026-04-26 16:01 57.73107 6.13888 37307 ft 416 kts 319°
2026-04-26 16:02 57.77591 6.07022 37309 ft 416 kts 319°
2026-04-26 16:02 57.82081 6.00123 37311 ft 418 kts 319°
2026-04-26 16:03 57.86537 5.93255 37308 ft 418 kts 319°
2026-04-26 16:03 57.91029 5.86308 37308 ft 418 kts 318°
2026-04-26 16:04 57.95509 5.79356 37303 ft 418 kts 318°
2026-04-26 16:04 57.99993 5.72375 37303 ft 418 kts 318°
2026-04-26 16:05 58.04439 5.65431 37297 ft 418 kts 318°
2026-04-26 16:05 58.08910 5.58422 37328 ft 418 kts 318°
2026-04-26 16:06 58.13381 5.51391 37312 ft 418 kts 318°
2026-04-26 16:06 58.17856 5.44329 37303 ft 418 kts 318°
2026-04-26 16:07 58.22320 5.37261 37311 ft 418 kts 318°
2026-04-26 16:07 58.26759 5.30209 37311 ft 418 kts 318°
2026-04-26 16:08 58.31216 5.23104 37311 ft 418 kts 318°
2026-04-26 16:08 58.35674 5.15973 37317 ft 418 kts 318°
2026-04-26 16:09 58.40125 5.08829 37320 ft 419 kts 318°
2026-04-26 16:09 58.44558 5.01688 37317 ft 420 kts 318°
2026-04-26 16:10 58.49014 4.94489 37314 ft 420 kts 317°
2026-04-26 16:10 58.53487 4.87235 37320 ft 421 kts 317°
2026-04-26 16:11 58.57947 4.79977 37326 ft 421 kts 317°
2026-04-26 16:11 58.62376 4.72745 37332 ft 421 kts 317°
2026-04-26 16:12 58.66833 4.65441 37331 ft 421 kts 317°
2026-04-26 16:12 58.73510 4.54454 37329 ft 421 kts 317°
2026-04-26 16:13 58.77951 4.47113 37334 ft 421 kts 317°
2026-04-26 16:13 58.82366 4.39788 37328 ft 421 kts 317°
2026-04-26 16:14 58.86807 4.32397 37331 ft 422 kts 317°
2026-04-26 16:15 58.93472 4.21255 37331 ft 422 kts 317°
2026-04-26 16:15 58.97881 4.13851 37346 ft 423 kts 317°
2026-04-26 16:16 59.04549 4.02604 37336 ft 423 kts 317°
2026-04-26 16:16 59.08983 3.95092 37333 ft 423 kts 317°
2026-04-26 16:17 59.13422 3.87544 37334 ft 423 kts 316°
2026-04-26 16:17 59.17826 3.80028 37328 ft 424 kts 316°
2026-04-26 16:18 59.24469 3.68643 37334 ft 424 kts 316°
2026-04-26 16:19 59.31122 3.57177 37345 ft 426 kts 316°
2026-04-26 16:20 59.37771 3.45656 37338 ft 426 kts 316°
2026-04-26 16:20 59.44388 3.34129 37338 ft 426 kts 316°
2026-04-26 16:21 59.48814 3.26383 37338 ft 426 kts 316°
2026-04-26 16:21 59.53233 3.18620 37337 ft 427 kts 315°
2026-04-26 16:22 59.57665 3.10808 37350 ft 427 kts 316°
2026-04-26 16:22 59.62071 3.03012 37338 ft 428 kts 316°
2026-04-26 16:23 59.66497 2.95151 37337 ft 428 kts 315°
2026-04-26 16:23 59.70926 2.87256 37337 ft 428 kts 315°
2026-04-26 16:24 59.75352 2.79336 37337 ft 428 kts 315°
2026-04-26 16:24 59.79737 2.71462 37335 ft 428 kts 315°
2026-04-26 16:25 59.84151 2.63505 37336 ft 428 kts 315°
2026-04-26 16:25 59.88568 2.55513 37338 ft 431 kts 315°
2026-04-26 16:26 59.92256 2.48817 37334 ft 432 kts 315°
2026-04-26 16:26 59.96696 2.40727 37339 ft 432 kts 315°
2026-04-26 16:27 60.01843 2.31313 37327 ft 432 kts 315°
2026-04-26 16:27 60.06266 2.23187 37336 ft 432 kts 315°
2026-04-26 16:28 60.09974 2.16351 37334 ft 432 kts 315°
2026-04-26 16:28 60.14360 2.08239 37332 ft 432 kts 315°
2026-04-26 16:29 60.18772 2.00046 37338 ft 433 kts 315°
2026-04-26 16:29 60.23914 1.90458 37335 ft 435 kts 315°
2026-04-26 16:30 60.27635 1.83493 37332 ft 435 kts 315°
2026-04-26 16:30 60.32024 1.75248 37332 ft 435 kts 315°
2026-04-26 16:31 60.36444 1.66912 37323 ft 435 kts 315°
2026-04-26 16:31 60.40857 1.58560 37327 ft 435 kts 315°
2026-04-26 16:32 60.45268 1.50174 37330 ft 435 kts 314°
2026-04-26 16:32 60.49655 1.41806 37327 ft 437 kts 315°
2026-04-26 16:33 60.54077 1.33334 37322 ft 437 kts 314°
2026-04-26 16:33 60.58502 1.24825 37327 ft 439 kts 314°
2026-04-26 16:34 60.62928 1.16281 37322 ft 438 kts 314°
2026-04-26 16:34 60.67345 1.07719 37317 ft 438 kts 314°
2026-04-26 16:35 60.71739 0.99166 37316 ft 438 kts 314°
2026-04-26 16:35 60.76147 0.90556 37328 ft 439 kts 314°
2026-04-26 16:36 60.80558 0.81902 37313 ft 440 kts 314°
2026-04-26 16:36 60.84967 0.73225 37311 ft 440 kts 314°
2026-04-26 16:37 60.89352 0.64564 37311 ft 441 kts 314°
2026-04-26 16:37 60.93768 0.55807 37315 ft 442 kts 314°
2026-04-26 16:38 60.98181 0.47022 37309 ft 441 kts 314°
2026-04-26 16:38 61.02588 0.38214 37306 ft 441 kts 314°
2026-04-26 16:39 61.06992 0.29377 37319 ft 442 kts 314°
2026-04-26 16:39 61.11375 0.20549 37304 ft 442 kts 314°
2026-04-26 16:40 61.15775 0.11650 37302 ft 442 kts 314°
2026-04-26 16:40 61.20159 0.02705 37297 ft 442 kts 310°
2026-04-26 16:41 61.21921 -0.02453 37280 ft 436 kts 295°
2026-04-26 16:41 61.23214 -0.08127 37314 ft 438 kts 295°
2026-04-26 16:41 61.25839 -0.19476 37306 ft 440 kts 294°
2026-04-26 16:42 61.28437 -0.31007 37290 ft 439 kts 294°
2026-04-26 16:42 61.31013 -0.42537 37294 ft 440 kts 293°
2026-04-26 16:43 61.33579 -0.54086 37312 ft 440 kts 293°
2026-04-26 16:43 61.36119 -0.65586 37294 ft 440 kts 293°
2026-04-26 16:44 61.38671 -0.77197 37295 ft 440 kts 293°
2026-04-26 16:44 61.41216 -0.88844 37284 ft 440 kts 293°
2026-04-26 16:45 61.43747 -1.00491 37284 ft 440 kts 293°
2026-04-26 16:45 61.46268 -1.12156 37284 ft 440 kts 293°
2026-04-26 16:46 61.48761 -1.23759 37278 ft 440 kts 293°
2026-04-26 16:46 61.51266 -1.35479 37279 ft 441 kts 292°
2026-04-26 16:47 61.53762 -1.47226 37402 ft 442 kts 292°
2026-04-26 16:47 61.55009 -1.53120 37614 ft 442 kts 292°
2026-04-26 16:47 61.56252 -1.59011 37809 ft 442 kts 292°
2026-04-26 16:48 61.57495 -1.64919 38029 ft 442 kts 292°
2026-04-26 16:48 61.58734 -1.70819 38220 ft 441 kts 292°
2026-04-26 16:48 61.61185 -1.82557 38257 ft 441 kts 292°
2026-04-26 16:49 61.63637 -1.94361 38272 ft 441 kts 292°
2026-04-26 16:49 61.66081 -2.06195 38256 ft 441 kts 292°
2026-04-26 16:50 61.68516 -2.18053 38264 ft 442 kts 291°
2026-04-26 16:50 61.70930 -2.29877 38254 ft 443 kts 291°
2026-04-26 16:51 61.73351 -2.41804 38254 ft 442 kts 291°
2026-04-26 16:51 61.75762 -2.53753 38253 ft 442 kts 291°
2026-04-26 16:52 61.77756 -2.63684 38247 ft 442 kts 291°
2026-04-26 16:52 61.80546 -2.77671 38246 ft 442 kts 291°
2026-04-26 16:53 61.82907 -2.89578 38244 ft 442 kts 291°
2026-04-26 16:53 61.85270 -3.01571 38237 ft 441 kts 291°
2026-04-26 16:54 61.87631 -3.13619 38237 ft 443 kts 291°
2026-04-26 16:54 61.89979 -3.25677 38210 ft 442 kts 290°
2026-04-26 16:55 61.92302 -3.37680 38237 ft 444 kts 290°
2026-04-26 16:55 61.94629 -3.49777 38228 ft 441 kts 290°
2026-04-26 16:56 61.98095 -3.67927 38236 ft 442 kts 290°
2026-04-26 16:57 62.00394 -3.80067 38239 ft 443 kts 290°
2026-04-26 16:57 62.03813 -3.98245 38237 ft 442 kts 290°
2026-04-26 16:58 62.05703 -4.08371 38217 ft 442 kts 289°
2026-04-26 16:59 62.09465 -4.28685 38203 ft 441 kts 290°
2026-04-26 17:00 62.13939 -4.53118 38204 ft 444 kts 290°
2026-04-26 17:00 62.17291 -4.71623 38192 ft 443 kts 289°
2026-04-26 17:01 62.19505 -4.83950 38201 ft 444 kts 289°
2026-04-26 17:01 62.21693 -4.96205 38187 ft 443 kts 289°
2026-04-26 17:02 62.23884 -5.08562 38188 ft 444 kts 289°
2026-04-26 17:02 62.26071 -5.20972 38183 ft 446 kts 289°
2026-04-26 17:03 62.28260 -5.33471 38188 ft 447 kts 288°
2026-04-26 17:03 62.30414 -5.45861 38178 ft 445 kts 289°
2026-04-26 17:04 62.32570 -5.58338 38176 ft 443 kts 288°
2026-04-26 17:04 62.34706 -5.70783 38179 ft 445 kts 289°
2026-04-26 17:05 62.36842 -5.83319 38174 ft 445 kts 289°
2026-04-26 17:05 62.38957 -5.95803 38174 ft 448 kts 288°
2026-04-26 17:06 62.41085 -6.08452 38171 ft 448 kts 288°
2026-04-26 17:06 62.43204 -6.21129 38164 ft 449 kts 288°
2026-04-26 17:07 62.45306 -6.33798 38154 ft 448 kts 288°
2026-04-26 17:07 62.47385 -6.46419 38156 ft 449 kts 288°
2026-04-26 17:08 62.49469 -6.59158 38159 ft 450 kts 288°
2026-04-26 17:08 62.51547 -6.71943 38155 ft 451 kts 288°
2026-04-26 17:09 62.53268 -6.82597 38147 ft 451 kts 288°
2026-04-26 17:09 62.55675 -6.97611 38146 ft 451 kts 288°
2026-04-26 17:10 62.57707 -7.10380 38137 ft 451 kts 288°
2026-04-26 17:10 62.59741 -7.23259 38138 ft 451 kts 287°
2026-04-26 17:11 62.61763 -7.36150 38138 ft 451 kts 287°
2026-04-26 17:11 62.63759 -7.48972 38140 ft 451 kts 287°
2026-04-26 17:12 62.66751 -7.68359 38135 ft 452 kts 287°
2026-04-26 17:13 62.69722 -7.87823 38135 ft 452 kts 287°
2026-04-26 17:14 62.72650 -8.07226 38132 ft 451 kts 286°
2026-04-26 17:14 62.75563 -8.26739 38126 ft 451 kts 287°
2026-04-26 17:15 62.78450 -8.46310 38126 ft 452 kts 286°
2026-04-26 17:16 62.80348 -8.59289 38127 ft 451 kts 286°
2026-04-26 17:16 62.82245 -8.72371 38120 ft 451 kts 286°
2026-04-26 17:17 62.84128 -8.85451 38117 ft 451 kts 285°
2026-04-26 17:17 62.86001 -8.98564 38122 ft 451 kts 285°
2026-04-26 17:18 62.87856 -9.11615 38124 ft 452 kts 285°
2026-04-26 17:18 62.89696 -9.24649 38123 ft 451 kts 285°
2026-04-26 17:19 62.92466 -9.44459 38118 ft 451 kts 285°
2026-04-26 17:19 62.94291 -9.57640 38109 ft 451 kts 285°
2026-04-26 17:20 62.95800 -9.68601 38102 ft 451 kts 285°
2026-04-26 17:20 62.97896 -9.83949 38112 ft 450 kts 285°
2026-04-26 17:21 62.99679 -9.97109 38092 ft 449 kts 285°
2026-04-26 17:21 63.01566 -10.10233 38092 ft 450 kts 286°
2026-04-26 17:22 63.03474 -10.23269 38116 ft 451 kts 286°
2026-04-26 17:22 63.05386 -10.36412 38087 ft 450 kts 286°
2026-04-26 17:23 63.07285 -10.49561 38082 ft 450 kts 285°
2026-04-26 17:23 63.09170 -10.62714 38089 ft 450 kts 285°
2026-04-26 17:24 63.11029 -10.75791 38083 ft 449 kts 285°
2026-04-26 17:24 63.12888 -10.88972 38093 ft 450 kts 285°
2026-04-26 17:25 63.14734 -11.02154 38083 ft 449 kts 285°
2026-04-26 17:25 63.16565 -11.15341 38081 ft 448 kts 285°
2026-04-26 17:26 63.18371 -11.28456 38076 ft 449 kts 285°
2026-04-26 17:26 63.20179 -11.41685 38082 ft 449 kts 285°
2026-04-26 17:27 63.21973 -11.54913 38072 ft 447 kts 285°
2026-04-26 17:27 63.23748 -11.68122 38073 ft 447 kts 285°
2026-04-26 17:28 63.25501 -11.81250 38080 ft 447 kts 284°
2026-04-26 17:28 63.27252 -11.94484 38062 ft 446 kts 285°
2026-04-26 17:29 63.28696 -12.05489 38074 ft 447 kts 284°
2026-04-26 17:29 63.30716 -12.20997 38072 ft 446 kts 284°
2026-04-26 17:30 63.32415 -12.34169 38065 ft 445 kts 284°
2026-04-26 17:30 63.34110 -12.47414 38067 ft 445 kts 284°
2026-04-26 17:31 63.35795 -12.60690 38059 ft 446 kts 284°
2026-04-26 17:31 63.37466 -12.73981 38057 ft 445 kts 284°
2026-04-26 17:32 63.39125 -12.87273 38059 ft 445 kts 284°
2026-04-26 17:32 63.40759 -13.00488 38057 ft 445 kts 284°
2026-04-26 17:33 63.42395 -13.13825 38055 ft 445 kts 284°
2026-04-26 17:34 63.44820 -13.33827 38052 ft 445 kts 284°
2026-04-26 17:34 63.46423 -13.47192 38047 ft 445 kts 284°
2026-04-26 17:35 63.48005 -13.60496 38048 ft 445 kts 284°
2026-04-26 17:35 63.49583 -13.73897 38047 ft 445 kts 283°
2026-04-26 17:36 63.51149 -13.87312 38044 ft 445 kts 283°
2026-04-26 17:36 63.52703 -14.00742 38048 ft 445 kts 283°
2026-04-26 17:37 63.54231 -14.14078 38039 ft 444 kts 283°
2026-04-26 17:37 63.55757 -14.27511 38046 ft 445 kts 283°
2026-04-26 17:38 63.58022 -14.47684 38044 ft 444 kts 283°
2026-04-26 17:38 63.59517 -14.61168 38039 ft 444 kts 283°
2026-04-26 17:39 63.60988 -14.74556 38057 ft 445 kts 283°
2026-04-26 17:39 63.62458 -14.88059 38040 ft 444 kts 282°
2026-04-26 17:40 63.63668 -14.99272 38041 ft 444 kts 282°
2026-04-26 17:40 63.65353 -15.15047 38040 ft 444 kts 282°
2026-04-26 17:41 63.66783 -15.28570 38039 ft 444 kts 282°
2026-04-26 17:41 63.68189 -15.42008 38043 ft 444 kts 282°
2026-04-26 17:42 63.69593 -15.55560 38041 ft 444 kts 282°
2026-04-26 17:42 63.70983 -15.69109 38035 ft 443 kts 282°
2026-04-26 17:43 63.72355 -15.82615 38031 ft 441 kts 282°
2026-04-26 17:43 63.73712 -15.96111 38045 ft 441 kts 282°
2026-04-26 17:44 63.75050 -16.09524 38044 ft 441 kts 282°
2026-04-26 17:44 63.76387 -16.23036 38044 ft 441 kts 281°
2026-04-26 17:45 63.77711 -16.36549 38039 ft 441 kts 281°
2026-04-26 17:45 63.79024 -16.50082 38050 ft 441 kts 281°
2026-04-26 17:46 63.80286 -16.63555 38044 ft 440 kts 276°
2026-04-26 17:46 63.80934 -16.77301 38043 ft 440 kts 275°
2026-04-26 17:47 63.81500 -16.88744 38035 ft 439 kts 276°
2026-04-26 17:47 63.82296 -17.04821 38029 ft 440 kts 276°
2026-04-26 17:48 63.82965 -17.18585 38034 ft 440 kts 275°
2026-04-26 17:48 63.83616 -17.32263 38031 ft 440 kts 275°
2026-04-26 17:49 63.84259 -17.46019 38024 ft 437 kts 275°
2026-04-26 17:49 63.84884 -17.59725 38020 ft 437 kts 275°
2026-04-26 17:50 63.85493 -17.73339 38019 ft 436 kts 275°
2026-04-26 17:50 63.86093 -17.87042 38024 ft 437 kts 275°
2026-04-26 17:51 63.86680 -18.00766 38037 ft 438 kts 275°
2026-04-26 17:51 63.87255 -18.14515 38022 ft 438 kts 275°
2026-04-26 17:52 63.87818 -18.28274 38019 ft 437 kts 275°
2026-04-26 17:52 63.88359 -18.41861 38020 ft 435 kts 275°
2026-04-26 17:53 63.88894 -18.55565 37622 ft 435 kts 275°
2026-04-26 17:53 63.89155 -18.62395 37135 ft 434 kts 275°
2026-04-26 17:54 63.89666 -18.76027 35905 ft 434 kts 275°
2026-04-26 17:54 63.89918 -18.82850 35259 ft 434 kts 275°
2026-04-26 17:54 63.90163 -18.89598 34642 ft 435 kts 275°
2026-04-26 17:54 63.90408 -18.96445 34031 ft 435 kts 275°
2026-04-26 17:55 63.90651 -19.03310 33366 ft 436 kts 275°
2026-04-26 17:55 63.90891 -19.10172 32819 ft 435 kts 275°
2026-04-26 17:55 63.91125 -19.16981 32370 ft 430 kts 275°
2026-04-26 17:55 63.91355 -19.23755 31939 ft 429 kts 276°
2026-04-26 17:56 63.91581 -19.30514 31521 ft 429 kts 276°
2026-04-26 17:56 63.92021 -19.43942 30658 ft 429 kts 276°
2026-04-26 17:57 63.92462 -19.57436 29726 ft 428 kts 276°
2026-04-26 17:57 63.92674 -19.64200 29185 ft 430 kts 276°
2026-04-26 17:57 63.92881 -19.70984 28649 ft 432 kts 276°
2026-04-26 17:57 63.93086 -19.77810 28109 ft 434 kts 275°
2026-04-26 17:58 63.93683 -19.98399 26548 ft 440 kts 274°
2026-04-26 17:59 63.94074 -20.12285 25584 ft 441 kts 274°
2026-04-26 17:59 63.94265 -20.19248 25118 ft 440 kts 274°
2026-04-26 17:59 63.94453 -20.26184 24657 ft 438 kts 274°
2026-04-26 17:59 63.94633 -20.33077 24202 ft 436 kts 273°
2026-04-26 18:00 63.94479 -20.39952 23757 ft 434 kts 266°
2026-04-26 18:00 63.94262 -20.46769 23276 ft 432 kts 267°
2026-04-26 18:00 63.94070 -20.53566 22751 ft 429 kts 267°
2026-04-26 18:00 63.93891 -20.60235 22235 ft 427 kts 267°
2026-04-26 18:01 63.93715 -20.66959 21715 ft 426 kts 267°
2026-04-26 18:01 63.93538 -20.73678 21222 ft 424 kts 267°
2026-04-26 18:01 63.93361 -20.80338 20716 ft 419 kts 266°
2026-04-26 18:01 63.93183 -20.86908 20235 ft 415 kts 266°
2026-04-26 18:02 63.93003 -20.93448 19759 ft 413 kts 266°
2026-04-26 18:02 63.92885 -20.97703 19442 ft 412 kts 266°
2026-04-26 18:02 63.92638 -21.06408 18821 ft 408 kts 265°
2026-04-26 18:02 63.92454 -21.12799 18346 ft 405 kts 265°
2026-04-26 18:03 63.92269 -21.19100 17849 ft 402 kts 265°
2026-04-26 18:03 63.92083 -21.25387 17346 ft 396 kts 265°
2026-04-26 18:03 63.91898 -21.31555 16849 ft 385 kts 264°
2026-04-26 18:03 63.91713 -21.37553 16359 ft 378 kts 264°
2026-04-26 18:04 63.91517 -21.43502 15871 ft 377 kts 264°
2026-04-26 18:04 63.91320 -21.49411 15387 ft 372 kts 264°
2026-04-26 18:04 63.91126 -21.55213 14903 ft 363 kts 263°
2026-04-26 18:05 63.90747 -21.66344 14082 ft 344 kts 262°
2026-04-26 18:05 63.90566 -21.71593 13666 ft 331 kts 261°
2026-04-26 18:05 63.90386 -21.76709 13190 ft 320 kts 262°
2026-04-26 18:05 63.90211 -21.81663 12729 ft 310 kts 262°
2026-04-26 18:06 63.90040 -21.86480 12269 ft 302 kts 262°
2026-04-26 18:06 63.89870 -21.91170 11819 ft 294 kts 261°
2026-04-26 18:06 63.89706 -21.95752 11362 ft 288 kts 259°
2026-04-26 18:06 63.89539 -22.00226 10910 ft 283 kts 261°
2026-04-26 18:07 63.89377 -22.04655 10485 ft 280 kts 261°
2026-04-26 18:07 63.89210 -22.09072 10181 ft 281 kts 262°
2026-04-26 18:07 63.89043 -22.13512 9876 ft 283 kts 259°
2026-04-26 18:07 63.88933 -22.16462 9676 ft 283 kts 259°
2026-04-26 18:08 63.88707 -22.22340 9234 ft 281 kts 259°
2026-04-26 18:08 63.88537 -22.26747 8916 ft 280 kts 261°
2026-04-26 18:08 63.88368 -22.31136 8605 ft 279 kts 260°
2026-04-26 18:08 63.88219 -22.35511 8338 ft 277 kts 261°
2026-04-26 18:09 63.88093 -22.39857 8166 ft 275 kts 262°
2026-04-26 18:09 63.87967 -22.44168 7950 ft 274 kts 262°
2026-04-26 18:09 63.87837 -22.48476 7694 ft 274 kts 262°
2026-04-26 18:09 63.87706 -22.52732 7396 ft 274 kts 262°
2026-04-26 18:10 63.87573 -22.57037 7087 ft 273 kts 261°
2026-04-26 18:10 63.87439 -22.61327 6797 ft 273 kts 261°
2026-04-26 18:10 63.87302 -22.65617 6491 ft 273 kts 261°
2026-04-26 18:10 63.87165 -22.69910 6160 ft 272 kts 261°
2026-04-26 18:11 63.87031 -22.74120 5828 ft 263 kts 262°
2026-04-26 18:11 63.86900 -22.78169 5462 ft 249 kts 261°
2026-04-26 18:11 63.86777 -22.81929 5104 ft 229 kts 261°
2026-04-26 18:11 63.86664 -22.85417 4735 ft 215 kts 259°
2026-04-26 18:12 63.86558 -22.88659 4475 ft 207 kts 262°
2026-04-26 18:12 63.86842 -22.91837 4197 ft 211 kts 293°
2026-04-26 18:12 63.87609 -22.94710 3942 ft 213 kts 299°
2026-04-26 18:12 63.88415 -22.97505 3680 ft 209 kts 300°
2026-04-26 18:13 63.89194 -23.00140 3475 ft 192 kts 300°
2026-04-26 18:13 63.90031 -23.02423 3172 ft 189 kts 323°
2026-04-26 18:13 63.91221 -23.03411 2814 ft 180 kts 359°
2026-04-26 18:13 63.92030 -23.03274 2628 ft 173 kts 16°
2026-04-26 18:14 63.93561 -23.02332 2351 ft 172 kts 23°
2026-04-26 18:14 63.94690 -23.01520 2230 ft 170 kts 24°
2026-04-26 18:14 63.95816 -23.00670 2150 ft 170 kts 25°
2026-04-26 18:14 63.96938 -22.99801 2056 ft 170 kts 27°
2026-04-26 18:15 63.97797 -22.98312 1878 ft 145 kts 70°
2026-04-26 18:15 63.98078 -22.96270 1818 ft 132 kts 91°
2026-04-26 18:15 63.98181 -22.94207 1813 ft 131 kts 94°
2026-04-26 18:15 63.98269 -22.92141 1764 ft 131 kts 93°
2026-04-26 18:16 63.98372 -22.90083 1668 ft 130 kts 93°
2026-04-26 18:16 63.98477 -22.86041 1438 ft 128 kts 97°
2026-04-26 18:16 63.98486 -22.84016 1331 ft 127 kts 98°
2026-04-26 18:17 63.98489 -22.82004 1220 ft 127 kts 98°
2026-04-26 18:17 63.98492 -22.80001 1117 ft 125 kts 98°
2026-04-26 18:17 63.98495 -22.78030 1004 ft 123 kts 98°
2026-04-26 18:17 63.98497 -22.76086 888 ft 123 kts 97°
2026-04-26 18:18 63.98499 -22.74140 785 ft 123 kts 97°
2026-04-26 18:18 63.98500 -22.72193 667 ft 123 kts 95°
2026-04-26 18:18 63.98502 -22.70282 530 ft 122 kts 95°
2026-04-26 18:18 63.98506 -22.68389 373 ft 119 kts 95°
2026-04-26 18:19 63.98507 -22.66434 308 ft 125 kts 95°
2026-04-26 18:19 63.98506 -22.64466 185 ft 119 kts 96°
2026-04-26 18:19 63.98502 -22.62932 161 ft 70 kts 89°
2026-04-26 18:19 63.98503 -22.62090 160 ft 42 kts 89°
2026-04-26 18:20 63.98504 -22.61435 157 ft 40 kts 91°
2026-04-26 18:20 63.98502 -22.60915 155 ft 21 kts 92°
2026-04-26 18:20 63.98503 -22.60609 156 ft 17 kts 84°
2026-04-26 18:20 63.98514 -22.60560 156 ft 8 kts 40°
2026-04-26 18:21 63.98621 -22.60543 157 ft 10 kts 360°
2026-04-26 18:21 63.98684 -22.60543 158 ft 9 kts
2026-04-26 18:21 63.98755 -22.60543 158 ft 13 kts
2026-04-26 18:21 63.98817 -22.60630 161 ft 9 kts 307°
2026-04-26 18:22 63.98854 -22.60722 166 ft 8 kts 315°
2026-04-26 18:22 63.98899 -22.60823 164 ft 9 kts 315°
2026-04-26 18:22 63.98943 -22.60917 165 ft 8 kts 326°
2026-04-26 18:22 63.98984 -22.60940 165 ft 6 kts 349°
2026-04-26 18:23 63.99040 -22.60945 167 ft 10 kts
2026-04-26 18:23 63.99111 -22.60942 168 ft 9 kts
2026-04-26 18:23 63.99161 -22.60977 169 ft 7 kts 315°
2026-04-26 18:23 63.99172 -22.61116 169 ft 14 kts 269°
2026-04-26 18:24 63.99172 -22.61361 168 ft 16 kts 268°
2026-04-26 18:24 63.99171 -22.61610 167 ft 16 kts 269°
2026-04-26 18:24 63.99171 -22.61852 166 ft 15 kts 270°
2026-04-26 18:24 63.99171 -22.62094 165 ft 15 kts 270°
2026-04-26 18:25 63.99191 -22.62294 165 ft 12 kts 331°
2026-04-26 18:25 63.99268 -22.62308 166 ft 8 kts 359°
2026-04-26 18:25 63.99276 -22.62309 166 ft 1 kts 359°
2026-04-26 18:25 63.99286 -22.62309 166 ft 0 kts 359°